| time (UTC) | temp F | wind direction | speed knots | gust knots | rain 1hr in | rain 24hr in | rain mn in | humidity % | barometer mb |
| 20260906091514 | 73 | 65 | 1.7 | 3.5 | 0.00 | 0.00 | 0.00 | 97 | 1014.9 |
| 20260906091010 | 73 | 89 | 2.6 | 3.5 | 0.00 | 0.00 | 0.00 | 96 | 1015.1 |
| 20260906090504 | 73 | 50 | 2.6 | 4.3 | 0.00 | 0.00 | 0.00 | 97 | 1014.8 |
| 20260906085959 | 73 | 92 | 1.7 | 4.3 | 0.00 | 0.00 | 0.00 | 97 | 1014.7 |
| 20260906085458 | 73 | 80 | 0.0 | 4.3 | 0.00 | 0.00 | 0.00 | 97 | 1014.7 |
| 20260906084957 | 73 | 99 | 1.7 | 3.5 | 0.00 | 0.00 | 0.00 | 97 | 1014.7 |
| 20260906084452 | 73 | 84 | 2.6 | 3.5 | 0.00 | 0.00 | 0.00 | 97 | 1014.7 |
| 20260906083951 | 73 | 113 | 1.7 | 2.6 | 0.00 | 0.00 | 0.00 | 97 | 1014.5 |
| 20260906083448 | 73 | 112 | 0.9 | 4.3 | 0.00 | 0.00 | 0.00 | 97 | 1014.7 |
| 20260906082946 | 73 | 91 | 2.6 | 4.3 | 0.00 | 0.00 | 0.00 | 97 | 1014.8 |
| 20260906082442 | 73 | 76 | 1.7 | 3.5 | 0.00 | 0.00 | 0.00 | 97 | 1014.5 |
| 20260906081938 | 73 | 19 | 3.5 | 6.1 | 0.00 | 0.00 | 0.00 | 98 | 1014.4 |
| 20260906081433 | 73 | 62 | 2.6 | 4.3 | 0.00 | 0.00 | 0.00 | 97 | 1014.5 |
| 20260906080929 | 73 | 79 | 2.6 | 3.5 | 0.00 | 0.00 | 0.00 | 97 | 1014.4 |
| 20260906080425 | 73 | 140 | 2.6 | 4.3 | 0.00 | 0.00 | 0.00 | 97 | 1014.6 |
| 20260906075924 | 73 | 60 | 2.6 | 6.1 | 0.00 | 0.00 | 0.00 | 98 | 1014.5 |
| 20260906075414 | 73 | 88 | 2.6 | 6.1 | 0.00 | 0.00 | 0.00 | 98 | 1014.4 |
| 20260906074909 | 73 | 72 | 2.6 | 3.5 | 0.00 | 0.00 | 0.00 | 98 | 1014.6 |
| 20260906074409 | 73 | 92 | 1.7 | 2.6 | 0.00 | 0.00 | 0.00 | 98 | 1014.6 |
| 20260906073908 | 73 | 117 | 1.7 | 2.6 | 0.00 | 0.00 | 0.00 | 98 | 1014.4 |
| 20260906073403 | 74 | 89 | 1.7 | 2.6 | 0.00 | 0.00 | 0.00 | 98 | 1014.6 |
| 20260906072859 | 74 | 58 | 0.9 | 2.6 | 0.00 | 0.00 | 0.00 | 98 | 1014.7 |
| 20260906072354 | 74 | 156 | 3.5 | 4.3 | 0.00 | 0.00 | 0.00 | 98 | 1014.7 |
| 20260906071850 | 73 | 113 | 0.0 | 3.5 | 0.00 | 0.00 | 0.00 | 98 | 1014.6 |
| 20260906071346 | 74 | 128 | 1.7 | 2.6 | 0.00 | 0.00 | 0.00 | 98 | 1014.7 |
| 20260906070841 | 74 | 84 | 1.7 | 4.3 | 0.00 | 0.00 | 0.00 | 98 | 1014.8 |
| 20260906070336 | 74 | 47 | 2.6 | 4.3 | 0.00 | 0.00 | 0.00 | 98 | 1014.7 |
| 20260906065832 | 74 | 50 | 1.7 | 2.6 | 0.00 | 0.00 | 0.00 | 98 | 1014.8 |
| 20260906065321 | 74 | 94 | 0.9 | 2.6 | 0.00 | 0.00 | 0.00 | 98 | 1014.7 |
| 20260906064816 | 74 | 143 | 1.7 | 3.5 | 0.00 | 0.00 | 0.00 | 97 | 1014.7 |
| 20260906064313 | 74 | 77 | 1.7 | 2.6 | 0.00 | 0.00 | 0.00 | 97 | 1014.8 |
| 20260906063807 | 74 | 92 | 0.9 | 2.6 | 0.00 | 0.00 | 0.00 | 97 | 1015.0 |
| 20260906063303 | 74 | 92 | 1.7 | 2.6 | 0.00 | 0.00 | 0.00 | 96 | 1014.7 |
| 20260906062758 | 74 | 110 | 2.6 | 2.6 | 0.00 | 0.00 | 0.00 | 96 | 1014.7 |
| 20260906062257 | 74 | 85 | 1.7 | 2.6 | 0.00 | 0.00 | 0.00 | 96 | 1014.9 |
| 20260906061752 | 74 | 93 | 1.7 | 3.5 | 0.00 | 0.00 | 0.00 | 95 | 1014.9 |
| 20260906061249 | 74 | 108 | 2.6 | 2.6 | 0.00 | 0.00 | 0.00 | 95 | 1015.1 |
| 20260906060743 | 75 | 89 | 1.7 | 2.6 | 0.00 | 0.00 | 0.00 | 95 | 1014.6 |
| 20260906060241 | 75 | 68 | 2.6 | 2.6 | 0.00 | 0.00 | 0.00 | 95 | 1014.7 |
| 20260906055736 | 75 | 87 | 0.9 | 2.6 | 0.00 | 0.00 | 0.00 | 94 | 1015.0 |
| 20260906055231 | 75 | 111 | 1.7 | 3.5 | 0.00 | 0.00 | 0.00 | 94 | 1014.7 |
| 20260906054727 | 75 | 111 | 2.6 | 2.6 | 0.00 | 0.00 | 0.00 | 94 | 1014.6 |
| 20260906054222 | 75 | 52 | 1.7 | 2.6 | 0.00 | 0.00 | 0.00 | 94 | 1014.7 |
| 20260906053719 | 75 | 82 | 0.9 | 2.6 | 0.00 | 0.00 | 0.00 | 94 | 1014.8 |
| 20260906053214 | 75 | 85 | 0.9 | 2.6 | 0.00 | 0.00 | 0.00 | 93 | 1014.6 |
| 20260906052709 | 76 | 55 | 1.7 | 2.6 | 0.00 | 0.00 | 0.00 | 93 | 1015.0 |
| 20260906052205 | 76 | 69 | 1.7 | 3.5 | 0.00 | 0.00 | 0.00 | 92 | 1014.7 |
| 20260906051702 | 76 | 68 | 2.6 | 3.5 | 0.00 | 0.00 | 0.00 | 92 | 1014.7 |
| 20260906051201 | 76 | 53 | 1.7 | 2.6 | 0.00 | 0.00 | 0.00 | 92 | 1014.6 |
| 20260906050657 | 76 | 88 | 1.7 | 2.6 | 0.00 | 0.00 | 0.00 | 92 | 1014.5 |
| 20260906050152 | 77 | 85 | 1.7 | 2.6 | 0.00 | 0.00 | 0.00 | 91 | 1014.6 |
| 20260906045650 | 77 | 60 | 1.7 | 3.5 | 0.00 | 0.00 | 0.00 | 91 | 1014.4 |
| 20260906045145 | 77 | 75 | 1.7 | 2.6 | 0.00 | 0.00 | 0.00 | 90 | 1014.7 |
| 20260906044641 | 77 | 111 | 1.7 | 2.6 | 0.00 | 0.00 | 0.00 | 90 | 1014.5 |
| 20260906044137 | 77 | 89 | 0.9 | 2.6 | 0.00 | 0.00 | 0.00 | 89 | 1014.3 |
| 20260906043633 | 77 | 72 | 2.6 | 2.6 | 0.00 | 0.00 | 0.00 | 89 | 1014.5 |
| 20260906043128 | 77 | 80 | 1.7 | 2.6 | 0.00 | 0.00 | 0.00 | 88 | 1014.4 |
| 20260906042627 | 77 | 74 | 1.7 | 1.7 | 0.00 | 0.00 | 0.00 | 89 | 1014.3 |
| 20260906042121 | 78 | 89 | 0.9 | 1.7 | 0.00 | 0.00 | 0.00 | 88 | 1014.1 |
| 20260906041617 | 78 | 89 | 0.9 | 1.7 | 0.00 | 0.00 | 0.00 | 88 | 1014.2 |
| 20260906041112 | 78 | 113 | 1.7 | 2.6 | 0.00 | 0.00 | 0.00 | 88 | 1014.1 |
| 20260906040608 | 78 | 124 | 0.0 | 2.6 | 0.00 | 0.00 | 0.00 | 87 | 1014.3 |
| 20260906035558 | 78 | 134 | 1.7 | 2.6 | 0.00 | 0.00 | 0.00 | 87 | 1014.2 |
| 20260906035053 | 79 | 66 | 1.7 | 2.6 | 0.00 | 0.00 | 0.00 | 87 | 1014.3 |
| 20260906034548 | 79 | 133 | 0.9 | 1.7 | 0.00 | 0.00 | 0.00 | 86 | 1014.1 |
| 20260906034043 | 79 | 69 | 0.9 | 3.5 | 0.00 | 0.00 | 0.00 | 86 | 1014.3 |
| 20260906033538 | 80 | 71 | 3.5 | 4.3 | 0.00 | 0.00 | 0.00 | 86 | 1014.2 |
| 20260906033033 | 80 | 84 | 1.7 | 2.6 | 0.00 | 0.00 | 0.00 | 86 | 1014.0 |
| 20260906032530 | 80 | 118 | 1.7 | 3.5 | 0.00 | 0.00 | 0.00 | 85 | 1013.8 |
| 20260906032025 | 80 | 71 | 2.6 | 4.3 | 0.00 | 0.00 | 0.00 | 85 | 1014.2 |
| 20260906031520 | 80 | 68 | 2.6 | 3.5 | 0.00 | 0.00 | 0.00 | 85 | 1014.0 |
| 20260906031015 | 80 | 80 | 3.5 | 4.3 | 0.00 | 0.00 | 0.00 | 85 | 1014.2 |
| 20260906030514 | 80 | 73 | 1.7 | 3.5 | 0.00 | 0.00 | 0.00 | 85 | 1013.8 |
| 20260906030009 | 81 | 47 | 2.6 | 2.6 | 0.00 | 0.00 | 0.00 | 84 | 1013.8 |
| 20260906025508 | 81 | 92 | 1.7 | 3.5 | 0.00 | 0.00 | 0.00 | 84 | 1013.8 |
| 20260906025007 | 81 | 66 | 2.6 | 4.3 | 0.00 | 0.00 | 0.00 | 84 | 1013.7 |
| 20260906024502 | 81 | 50 | 3.5 | 3.5 | 0.00 | 0.00 | 0.00 | 83 | 1014.0 |
| 20260906023956 | 81 | 56 | 2.6 | 3.5 | 0.00 | 0.00 | 0.00 | 83 | 1013.6 |
| 20260906023452 | 82 | 40 | 2.6 | 3.5 | 0.00 | 0.00 | 0.00 | 83 | 1013.8 |
| 20260906022947 | 82 | 78 | 1.7 | 4.3 | 0.00 | 0.00 | 0.00 | 82 | 1013.8 |
| 20260906022442 | 82 | 78 | 2.6 | 4.3 | 0.00 | 0.00 | 0.00 | 82 | 1013.6 |
| 20260906021937 | 82 | 74 | 2.6 | 4.3 | 0.00 | 0.00 | 0.00 | 82 | 1013.5 |
| 20260906021432 | 82 | 71 | 1.7 | 4.3 | 0.00 | 0.00 | 0.00 | 82 | 1013.3 |
| 20260906020926 | 82 | 74 | 2.6 | 4.3 | 0.00 | 0.00 | 0.00 | 81 | 1013.3 |
| 20260906020421 | 83 | 79 | 2.6 | 4.3 | 0.00 | 0.00 | 0.00 | 81 | 1013.4 |
| 20260906015915 | 83 | 92 | 1.7 | 4.3 | 0.00 | 0.00 | 0.00 | 81 | 1013.5 |
| 20260906015414 | 84 | 70 | 3.5 | 4.3 | 0.00 | 0.00 | 0.00 | 81 | 1013.2 |
| 20260906014909 | 84 | 61 | 2.6 | 4.3 | 0.00 | 0.00 | 0.00 | 79 | 1013.5 |
| 20260906014409 | 84 | 58 | 3.5 | 3.5 | 0.00 | 0.00 | 0.00 | 79 | 1013.3 |
| 20260906013905 | 84 | 61 | 2.6 | 4.3 | 0.00 | 0.00 | 0.00 | 79 | 1013.1 |
| 20260906013401 | 84 | 81 | 1.7 | 2.6 | 0.00 | 0.00 | 0.00 | 83 | 1012.9 |
| 20260906012856 | 84 | 75 | 1.7 | 2.6 | 0.00 | 0.00 | 0.00 | 83 | 1012.8 |
| 20260906012351 | 83 | 110 | 0.9 | 1.7 | 0.00 | 0.00 | 0.00 | 84 | 1012.7 |
| 20260906011850 | 83 | 104 | 0.0 | 1.7 | 0.00 | 0.00 | 0.00 | 85 | 1012.8 |
| 20260906011345 | 83 | 230 | 0.0 | 0.9 | 0.00 | 0.00 | 0.00 | 85 | 1012.7 |
| 20260906010841 | 83 | 89 | 0.0 | 0.9 | 0.00 | 0.00 | 0.00 | 85 | 1012.5 |
| 20260906010337 | 83 | 63 | 0.9 | 1.7 | 0.00 | 0.00 | 0.00 | 85 | 1012.5 |
| 20260906005832 | 84 | 230 | 0.0 | 0.0 | 0.00 | 0.00 | 0.00 | 83 | 1012.4 |
| 20260906005331 | 84 | 230 | 0.0 | 0.9 | 0.00 | 0.00 | 0.00 | 83 | 1012.3 |
| 20260906004824 | 84 | 326 | 0.0 | 0.9 | 0.00 | 0.00 | 0.00 | 83 | 1012.3 |
| 20260906004324 | 84 | 256 | 0.0 | 0.9 | 0.00 | 0.00 | 0.00 | 83 | 1012.5 |
| 20260906003819 | 84 | 269 | 0.0 | 0.9 | 0.00 | 0.00 | 0.00 | 82 | 1012.3 |
| 20260906003315 | 85 | 247 | 0.9 | 1.7 | 0.00 | 0.00 | 0.00 | 82 | 1012.4 |
| 20260906002810 | 85 | 238 | 0.9 | 1.7 | 0.00 | 0.00 | 0.00 | 81 | 1012.3 |
| 20260906002309 | 85 | 260 | 0.0 | 0.9 | 0.00 | 0.00 | 0.00 | 80 | 1012.5 |
| 20260906001805 | 86 | 252 | 0.0 | 0.9 | 0.00 | 0.00 | 0.00 | 79 | 1012.4 |
| 20260906001300 | 86 | 252 | 0.0 | 0.9 | 0.00 | 0.00 | 0.00 | 79 | 1012.5 |
| 20260906000755 | 86 | 269 | 0.0 | 1.7 | 0.00 | 0.00 | 0.00 | 78 | 1012.7 |
| 20260906000250 | 86 | 257 | 0.0 | 0.9 | 0.00 | 0.00 | 0.00 | 77 | 1012.6 |
| 20260905235745 | 87 | 281 | 0.0 | 0.9 | 0.00 | 0.00 | 0.00 | 77 | 1012.7 |
| 20260905235244 | 87 | 269 | 0.0 | 0.9 | 0.00 | 0.00 | 0.00 | 75 | 1012.7 |
| 20260905234740 | 88 | 309 | 0.0 | 0.0 | 0.00 | 0.00 | 0.00 | 73 | 1012.6 |
| 20260905234235 | 88 | 343 | 0.0 | 0.9 | 0.00 | 0.00 | 0.00 | 72 | 1012.7 |
| 20260905233730 | 88 | 297 | 0.0 | 0.9 | 0.00 | 0.00 | 0.00 | 72 | 1012.7 |
| 20260905233230 | 89 | 315 | 0.0 | 1.7 | 0.00 | 0.00 | 0.00 | 71 | 1012.6 |
| 20260905232724 | 89 | 242 | 0.0 | 0.0 | 0.00 | 0.00 | 0.00 | 70 | 1012.7 |
| 20260905232220 | 89 | 310 | 0.0 | 0.9 | 0.00 | 0.00 | 0.00 | 70 | 1012.7 |
| 20260905231716 | 89 | 164 | 0.0 | 1.7 | 0.00 | 0.00 | 0.00 | 70 | 1012.7 |
| 20260905231212 | 89 | 89 | 0.0 | 0.0 | 0.00 | 0.00 | 0.00 | 71 | 1012.5 |
| 20260905230707 | 89 | 50 | 0.0 | 0.9 | 0.00 | 0.00 | 0.00 | 70 | 1012.4 |
| 20260905230205 | 90 | 25 | 0.0 | 1.7 | 0.00 | 0.00 | 0.00 | 68 | 1012.2 |
| 20260905225705 | 90 | 345 | 0.0 | 0.9 | 0.00 | 0.00 | 0.00 | 69 | 1012.6 |
| 20260905225159 | 91 | 51 | 0.0 | 1.7 | 0.00 | 0.00 | 0.00 | 66 | 1012.4 |
| 20260905224653 | 91 | 55 | 0.0 | 1.7 | 0.00 | 0.00 | 0.00 | 66 | 1012.3 |
| 20260905224148 | 91 | 37 | 0.0 | 4.3 | 0.00 | 0.00 | 0.00 | 66 | 1012.5 |
| 20260905223645 | 90 | 335 | 0.0 | 2.6 | 0.00 | 0.00 | 0.00 | 66 | 1012.3 |
| 20260905223142 | 90 | 49 | 1.7 | 2.6 | 0.00 | 0.00 | 0.00 | 69 | 1012.3 |
| 20260905222637 | 90 | 104 | 0.0 | 2.6 | 0.00 | 0.00 | 0.00 | 67 | 1012.2 |
| 20260905222131 | 90 | 75 | 1.7 | 4.3 | 0.00 | 0.00 | 0.00 | 68 | 1012.2 |
| 20260905221627 | 90 | 116 | 0.9 | 1.7 | 0.00 | 0.00 | 0.00 | 68 | 1012.3 |
| 20260905221123 | 91 | 308 | 1.7 | 2.6 | 0.00 | 0.00 | 0.00 | 67 | 1012.2 |
| 20260905220619 | 91 | 240 | 0.0 | 2.6 | 0.00 | 0.00 | 0.00 | 66 | 1012.0 |
| 20260905220115 | 91 | 78 | 1.7 | 3.5 | 0.00 | 0.00 | 0.00 | 66 | 1012.1 |
| 20260905215615 | 92 | 356 | 0.0 | 1.7 | 0.00 | 0.00 | 0.00 | 64 | 1012.1 |
| 20260905215110 | 91 | 351 | 0.9 | 2.6 | 0.00 | 0.00 | 0.00 | 66 | 1012.2 |
| 20260905214606 | 91 | 35 | 0.0 | 2.6 | 0.00 | 0.00 | 0.00 | 65 | 1012.3 |
| 20260905214106 | 91 | 98 | 2.6 | 2.6 | 0.00 | 0.00 | 0.00 | 66 | 1012.4 |
| 20260905213601 | 91 | 47 | 0.9 | 2.6 | 0.00 | 0.00 | 0.00 | 65 | 1012.3 |
| 20260905213056 | 92 | 43 | 0.9 | 2.6 | 0.00 | 0.00 | 0.00 | 66 | 1012.3 |
| 20260905212551 | 92 | 311 | 0.9 | 1.7 | 0.00 | 0.00 | 0.00 | 64 | 1012.4 |
| 20260905212050 | 91 | 64 | 4.3 | 4.3 | 0.00 | 0.00 | 0.00 | 63 | 1012.2 |
| 20260905211546 | 91 | 99 | 0.9 | 3.5 | 0.00 | 0.00 | 0.00 | 65 | 1012.3 |
| 20260905211041 | 92 | 80 | 0.9 | 3.5 | 0.00 | 0.00 | 0.00 | 67 | 1012.4 |
| 20260905210537 | 91 | 62 | 0.0 | 4.3 | 0.00 | 0.00 | 0.00 | 65 | 1012.3 |
| 20260905210032 | 93 | 302 | 0.0 | 2.6 | 0.00 | 0.00 | 0.00 | 63 | 1012.4 |
| 20260905205531 | 92 | 57 | 0.0 | 4.3 | 0.00 | 0.00 | 0.00 | 62 | 1012.5 |
| 20260905205031 | 92 | 15 | 2.6 | 2.6 | 0.00 | 0.00 | 0.00 | 63 | 1012.7 |
| 20260905204526 | 92 | 103 | 1.7 | 3.5 | 0.00 | 0.00 | 0.00 | 61 | 1012.8 |
| 20260905204021 | 93 | 284 | 0.9 | 2.6 | 0.00 | 0.00 | 0.00 | 62 | 1012.9 |
| 20260905203521 | 93 | 38 | 1.7 | 3.5 | 0.00 | 0.00 | 0.00 | 61 | 1013.0 |
| 20260905203016 | 93 | 281 | 0.0 | 2.6 | 0.00 | 0.00 | 0.00 | 60 | 1013.1 |
| 20260905202511 | 92 | 81 | 1.7 | 3.5 | 0.00 | 0.00 | 0.00 | 62 | 1012.7 |
| 20260905202007 | 93 | 55 | 1.7 | 2.6 | 0.00 | 0.00 | 0.00 | 64 | 1013.2 |
| 20260905201502 | 93 | 35 | 1.7 | 4.3 | 0.00 | 0.00 | 0.00 | 62 | 1013.1 |
| 20260905201002 | 93 | 311 | 1.7 | 2.6 | 0.00 | 0.00 | 0.00 | 59 | 1013.1 |
| 20260905200457 | 94 | 33 | 0.9 | 2.6 | 0.00 | 0.00 | 0.00 | 59 | 1013.1 |
| 20260905195956 | 94 | 194 | 2.6 | 5.2 | 0.00 | 0.00 | 0.00 | 57 | 1013.0 |
| 20260905195451 | 94 | 242 | 3.5 | 6.1 | 0.00 | 0.00 | 0.00 | 58 | 1013.0 |
| 20260905194947 | 93 | 320 | 0.9 | 3.5 | 0.00 | 0.00 | 0.00 | 63 | 1012.9 |
| 20260905194446 | 93 | 205 | 0.0 | 4.3 | 0.00 | 0.00 | 0.00 | 58 | 1013.2 |
| 20260905193941 | 93 | 43 | 0.0 | 1.7 | 0.00 | 0.00 | 0.00 | 61 | 1013.0 |
| 20260905193440 | 93 | 322 | 0.0 | 2.6 | 0.00 | 0.00 | 0.00 | 60 | 1013.4 |
| 20260905192936 | 94 | 356 | 1.7 | 2.6 | 0.00 | 0.00 | 0.00 | 61 | 1013.4 |
| 20260905192431 | 94 | 344 | 1.7 | 2.6 | 0.00 | 0.00 | 0.00 | 60 | 1013.3 |
| 20260905191926 | 95 | 323 | 1.7 | 2.6 | 0.00 | 0.00 | 0.00 | 59 | 1013.2 |
| 20260905191425 | 94 | 4 | 1.7 | 3.5 | 0.00 | 0.00 | 0.00 | 58 | 1013.3 |
| 20260905190920 | 95 | 70 | 0.0 | 2.6 | 0.00 | 0.00 | 0.00 | 60 | 1013.5 |
| 20260905190418 | 94 | 35 | 1.7 | 6.1 | 0.00 | 0.00 | 0.00 | 61 | 1013.6 |
| 20260905185916 | 95 | 207 | 1.7 | 5.2 | 0.00 | 0.00 | 0.00 | 57 | 1013.8 |
| 20260905185412 | 96 | 312 | 0.0 | 2.6 | 0.00 | 0.00 | 0.00 | 55 | 1014.0 |
| 20260905184910 | 95 | 233 | 1.7 | 3.5 | 0.00 | 0.00 | 0.00 | 58 | 1014.0 |
| 20260905184405 | 93 | 235 | 1.7 | 6.1 | 0.00 | 0.00 | 0.00 | 59 | 1014.0 |
| 20260905183903 | 93 | 291 | 2.6 | 7.0 | 0.00 | 0.00 | 0.00 | 60 | 1014.1 |
| 20260905183358 | 93 | 266 | 3.5 | 7.0 | 0.00 | 0.00 | 0.00 | 60 | 1014.3 |
| 20260905182854 | 93 | 244 | 0.9 | 4.3 | 0.00 | 0.00 | 0.00 | 59 | 1014.4 |
| 20260905182353 | 94 | 240 | 0.0 | 3.5 | 0.00 | 0.00 | 0.00 | 57 | 1014.6 |
| 20260905181849 | 92 | 159 | 0.9 | 3.5 | 0.00 | 0.00 | 0.00 | 60 | 1014.5 |
| 20260905181349 | 91 | 211 | 7.0 | 9.6 | 0.00 | 0.00 | 0.00 | 61 | 1014.4 |
| 20260905180848 | 90 | 124 | 0.0 | 9.6 | 0.00 | 0.00 | 0.00 | 62 | 1014.3 |
| 20260905180343 | 93 | 232 | 1.7 | 5.2 | 0.00 | 0.00 | 0.00 | 60 | 1014.6 |
| 20260905175837 | 91 | 165 | 1.7 | 4.3 | 0.00 | 0.00 | 0.00 | 62 | 1014.4 |
| 20260905175332 | 92 | 261 | 3.5 | 4.3 | 0.00 | 0.00 | 0.00 | 60 | 1014.5 |
| 20260905174827 | 93 | 160 | 1.7 | 2.6 | 0.00 | 0.00 | 0.00 | 61 | 1014.6 |
| 20260905174323 | 91 | 189 | 0.0 | 5.2 | 0.00 | 0.00 | 0.00 | 61 | 1014.7 |
| 20260905173818 | 90 | 87 | 0.0 | 3.5 | 0.00 | 0.00 | 0.00 | 65 | 1014.7 |
| 20260905173315 | 89 | 131 | 0.9 | 4.3 | 0.00 | 0.00 | 0.00 | 64 | 1014.6 |
| 20260905172814 | 89 | 175 | 1.7 | 4.3 | 0.00 | 0.00 | 0.00 | 65 | 1014.5 |
| 20260905172312 | 89 | 249 | 4.3 | 6.1 | 0.00 | 0.00 | 0.00 | 63 | 1014.6 |
| 20260905171809 | 90 | 225 | 2.6 | 6.1 | 0.00 | 0.00 | 0.00 | 64 | 1014.7 |
| 20260905171305 | 88 | 147 | 0.9 | 4.3 | 0.00 | 0.00 | 0.00 | 65 | 1014.9 |
| 20260905170801 | 88 | 174 | 1.7 | 3.5 | 0.00 | 0.00 | 0.00 | 66 | 1015.0 |
| 20260905170257 | 88 | 260 | 4.3 | 6.1 | 0.00 | 0.00 | 0.00 | 64 | 1015.1 |
| 20260905165756 | 88 | 228 | 6.1 | 9.6 | 0.00 | 0.00 | 0.00 | 64 | 1015.2 |
| 20260905165252 | 87 | 242 | 6.1 | 6.1 | 0.00 | 0.00 | 0.00 | 65 | 1015.3 |
| 20260905164752 | 87 | 212 | 3.5 | 6.1 | 0.00 | 0.00 | 0.00 | 65 | 1015.3 |
| 20260905164246 | 87 | 246 | 3.5 | 6.1 | 0.00 | 0.00 | 0.00 | 65 | 1015.8 |
| 20260905163742 | 87 | 18 | 0.9 | 5.2 | 0.00 | 0.00 | 0.00 | 65 | 1015.5 |
| 20260905163238 | 87 | 279 | 0.0 | 3.5 | 0.00 | 0.00 | 0.00 | 65 | 1015.5 |
| 20260905162734 | 88 | 210 | 2.6 | 4.3 | 0.00 | 0.00 | 0.00 | 65 | 1015.7 |
| 20260905162233 | 87 | 164 | 2.6 | 4.3 | 0.00 | 0.00 | 0.00 | 67 | 1015.4 |
| 20260905161723 | 87 | 142 | 4.3 | 6.1 | 0.00 | 0.00 | 0.00 | 66 | 1015.4 |
| 20260905161221 | 87 | 143 | 2.6 | 6.1 | 0.00 | 0.00 | 0.00 | 65 | 1015.2 |
| 20260905160720 | 86 | 193 | 0.0 | 5.2 | 0.00 | 0.00 | 0.00 | 66 | 1015.2 |
| 20260905160220 | 87 | 171 | 0.0 | 6.1 | 0.00 | 0.00 | 0.00 | 64 | 1015.3 |
| 20260905155714 | 87 | 193 | 1.7 | 3.5 | 0.00 | 0.00 | 0.00 | 66 | 1015.5 |
| 20260905155213 | 87 | 135 | 2.6 | 4.3 | 0.00 | 0.00 | 0.00 | 64 | 1015.6 |
| 20260905154707 | 87 | 105 | 0.0 | 4.3 | 0.00 | 0.00 | 0.00 | 66 | 1016.0 |
| 20260905154203 | 86 | 138 | 0.9 | 2.6 | 0.00 | 0.00 | 0.00 | 67 | 1015.9 |
| 20260905153659 | 84 | 215 | 3.5 | 5.2 | 0.00 | 0.00 | 0.00 | 68 | 1016.0 |
| 20260905153154 | 84 | 136 | 4.3 | 6.1 | 0.00 | 0.00 | 0.00 | 67 | 1015.9 |
| 20260905152649 | 85 | 223 | 2.6 | 4.3 | 0.00 | 0.00 | 0.00 | 66 | 1015.9 |
| 20260905152144 | 84 | 136 | 3.5 | 7.8 | 0.00 | 0.00 | 0.00 | 68 | 1015.7 |
| 20260905151638 | 84 | 138 | 3.5 | 3.5 | 0.00 | 0.00 | 0.00 | 65 | 1015.7 |
| 20260905151134 | 84 | 156 | 2.6 | 4.3 | 0.00 | 0.00 | 0.00 | 69 | 1015.8 |
| 20260905150629 | 83 | 159 | 3.5 | 5.2 | 0.00 | 0.00 | 0.00 | 69 | 1015.8 |
| 20260905150127 | 83 | 125 | 0.0 | 6.1 | 0.00 | 0.00 | 0.00 | 72 | 1015.7 |
| 20260905145626 | 83 | 132 | 3.5 | 5.2 | 0.00 | 0.00 | 0.00 | 72 | 1015.8 |
| 20260905145125 | 83 | 155 | 1.7 | 4.3 | 0.00 | 0.00 | 0.00 | 72 | 1015.7 |
| 20260905144620 | 82 | 151 | 3.5 | 7.8 | 0.00 | 0.00 | 0.00 | 73 | 1015.6 |
| 20260905144119 | 82 | 144 | 2.6 | 3.5 | 0.00 | 0.00 | 0.00 | 72 | 1015.9 |
| 20260905143614 | 81 | 63 | 2.6 | 7.0 | 0.00 | 0.00 | 0.00 | 73 | 1016.0 |
| 20260905143109 | 80 | 147 | 2.6 | 6.1 | 0.00 | 0.00 | 0.00 | 75 | 1016.2 |
| 20260905142608 | 80 | 173 | 3.5 | 8.7 | 0.00 | 0.00 | 0.00 | 74 | 1016.1 |
| 20260905142102 | 81 | 152 | 4.3 | 5.2 | 0.00 | 0.00 | 0.00 | 76 | 1016.2 |
| 20260905141601 | 80 | 131 | 0.9 | 4.3 | 0.00 | 0.00 | 0.00 | 77 | 1016.1 |
| 20260905141058 | 80 | 172 | 3.5 | 7.8 | 0.00 | 0.00 | 0.00 | 76 | 1016.2 |
| 20260905140553 | 79 | 148 | 4.3 | 7.8 | 0.00 | 0.00 | 0.00 | 76 | 1015.9 |
| 20260905140052 | 80 | 203 | 0.9 | 7.8 | 0.00 | 0.00 | 0.00 | 76 | 1016.1 |
| 20260905135548 | 80 | 135 | 2.6 | 5.2 | 0.00 | 0.00 | 0.00 | 79 | 1016.0 |
| 20260905135047 | 80 | 71 | 1.7 | 4.3 | 0.00 | 0.00 | 0.00 | 79 | 1016.2 |
| 20260905134542 | 80 | 172 | 1.7 | 4.3 | 0.00 | 0.00 | 0.00 | 79 | 1016.3 |
| 20260905134041 | 79 | 122 | 2.6 | 4.3 | 0.00 | 0.00 | 0.00 | 82 | 1016.0 |
| 20260905133536 | 79 | 163 | 3.5 | 8.7 | 0.00 | 0.00 | 0.00 | 82 | 1016.4 |
| 20260905133031 | 78 | 138 | 1.7 | 7.0 | 0.00 | 0.00 | 0.00 | 83 | 1016.3 |
| 20260905132531 | 78 | 112 | 4.3 | 10.4 | 0.00 | 0.00 | 0.00 | 83 | 1016.3 |
| 20260905132026 | 78 | 111 | 1.7 | 7.8 | 0.00 | 0.00 | 0.00 | 83 | 1016.3 |
| 20260905131521 | 78 | 176 | 3.5 | 6.1 | 0.00 | 0.00 | 0.00 | 84 | 1016.3 |
| 20260905131016 | 78 | 107 | 1.7 | 7.0 | 0.00 | 0.00 | 0.00 | 87 | 1016.2 |
| 20260905130515 | 78 | 124 | 1.7 | 6.1 | 0.00 | 0.00 | 0.00 | 88 | 1016.2 |
| 20260905130011 | 78 | 157 | 0.0 | 4.3 | 0.00 | 0.00 | 0.00 | 88 | 1016.3 |
| 20260905125505 | 78 | 145 | 2.6 | 5.2 | 0.00 | 0.00 | 0.00 | 88 | 1016.4 |
| 20260905125000 | 78 | 138 | 1.7 | 5.2 | 0.00 | 0.00 | 0.00 | 88 | 1016.3 |
| 20260905124457 | 78 | 143 | 3.5 | 7.8 | 0.00 | 0.00 | 0.00 | 88 | 1016.3 |
| 20260905123952 | 78 | 144 | 2.6 | 3.5 | 0.00 | 0.00 | 0.00 | 89 | 1015.9 |
| 20260905123448 | 77 | 147 | 2.6 | 4.3 | 0.00 | 0.00 | 0.00 | 92 | 1015.9 |
| 20260905122948 | 76 | 147 | 1.7 | 4.3 | 0.00 | 0.00 | 0.00 | 94 | 1015.7 |
| 20260905122443 | 75 | 127 | 3.5 | 6.1 | 0.00 | 0.00 | 0.00 | 95 | 1016.0 |
| 20260905121938 | 76 | 29 | 0.0 | 0.9 | 0.00 | 0.00 | 0.00 | 95 | 1015.2 |
| 20260905121434 | 76 | 167 | 1.7 | 1.7 | 0.00 | 0.00 | 0.00 | 94 | 1015.2 |
| 20260905120933 | 76 | 135 | 0.0 | 0.9 | 0.00 | 0.00 | 0.00 | 94 | 1015.1 |
| 20260905120427 | 75 | 230 | 0.9 | 1.7 | 0.00 | 0.00 | 0.00 | 94 | 1015.0 |
| 20260905115922 | 75 | 230 | 0.0 | 0.0 | 0.00 | 0.00 | 0.00 | 95 | 1015.1 |
| 20260905115421 | 75 | 22 | 0.0 | 0.9 | 0.00 | 0.00 | 0.00 | 95 | 1014.7 |
| 20260905114917 | 75 | 244 | 0.0 | 1.7 | 0.00 | 0.00 | 0.00 | 95 | 1014.8 |
| 20260905114416 | 75 | 89 | 0.0 | 0.0 | 0.00 | 0.00 | 0.00 | 96 | 1014.7 |
| 20260905113910 | 75 | 82 | 0.9 | 0.9 | 0.00 | 0.00 | 0.00 | 96 | 1014.8 |
| 20260905113405 | 75 | 50 | 0.0 | 0.0 | 0.00 | 0.00 | 0.00 | 96 | 1014.8 |
| 20260905112901 | 75 | 45 | 0.9 | 1.7 | 0.00 | 0.00 | 0.00 | 96 | 1014.6 |
| 20260905112356 | 75 | 114 | 0.9 | 0.9 | 0.00 | 0.00 | 0.00 | 96 | 1014.5 |
| 20260905111850 | 75 | 129 | 0.0 | 0.9 | 0.00 | 0.00 | 0.00 | 96 | 1014.5 |
| 20260905111344 | 75 | 240 | 0.0 | 0.0 | 0.00 | 0.00 | 0.00 | 96 | 1014.5 |
| 20260905110844 | 75 | 217 | 0.0 | 0.9 | 0.00 | 0.00 | 0.00 | 96 | 1014.5 |
| 20260905110338 | 75 | 291 | 0.0 | 1.7 | 0.00 | 0.00 | 0.00 | 96 | 1014.4 |
| 20260905105834 | 75 | 229 | 0.0 | 0.9 | 0.00 | 0.00 | 0.00 | 96 | 1014.2 |
| 20260905105333 | 75 | 44 | 0.0 | 0.0 | 0.00 | 0.00 | 0.00 | 96 | 1014.4 |
| 20260905104827 | 75 | 25 | 0.0 | 0.0 | 0.00 | 0.00 | 0.00 | 96 | 1014.6 |
| 20260905104324 | 75 | 25 | 0.0 | 0.9 | 0.00 | 0.00 | 0.00 | 96 | 1014.5 |
| 20260905103823 | 75 | 104 | 0.0 | 0.9 | 0.00 | 0.00 | 0.00 | 96 | 1014.5 |
| 20260905103319 | 76 | 129 | 0.0 | 0.9 | 0.00 | 0.00 | 0.00 | 96 | 1014.6 |
| 20260905102815 | 76 | 142 | 0.0 | 0.9 | 0.00 | 0.00 | 0.00 | 95 | 1014.6 |
| 20260905102311 | 76 | 321 | 0.0 | 0.9 | 0.00 | 0.00 | 0.00 | 95 | 1014.7 |
| 20260905101811 | 76 | 225 | 0.0 | 0.9 | 0.00 | 0.00 | 0.00 | 95 | 1014.7 |
| 20260905101309 | 76 | 243 | 0.9 | 1.7 | 0.00 | 0.00 | 0.00 | 95 | 1014.6 |
| 20260905100803 | 76 | 242 | 0.0 | 0.9 | 0.00 | 0.00 | 0.00 | 95 | 1014.7 |
| 20260905100259 | 76 | 239 | 0.9 | 1.7 | 0.00 | 0.00 | 0.00 | 95 | 1014.7 |
| 20260905095758 | 76 | 244 | 1.7 | 1.7 | 0.00 | 0.00 | 0.00 | 95 | 1014.7 |
| 20260905095253 | 76 | 230 | 0.0 | 1.7 | 0.00 | 0.00 | 0.00 | 95 | 1014.4 |
| 20260905094748 | 76 | 32 | 0.0 | 0.9 | 0.00 | 0.00 | 0.00 | 95 | 1014.5 |
| 20260905094244 | 76 | 195 | 0.0 | 0.0 | 0.00 | 0.00 | 0.00 | 95 | 1014.4 |
| 20260905093742 | 76 | 218 | 0.0 | 1.7 | 0.00 | 0.00 | 0.00 | 95 | 1014.3 |
| 20260905093238 | 76 | 212 | 0.0 | 0.9 | 0.00 | 0.00 | 0.00 | 95 | 1014.4 |
| 20260905092734 | 76 | 254 | 0.0 | 2.6 | 0.00 | 0.00 | 0.00 | 95 | 1014.6 |
| 20260905092229 | 76 | 255 | 0.0 | 0.9 | 0.00 | 0.00 | 0.00 | 95 | 1014.5 |